User: anonymous   Login
Location: Chipmunk Meadow
(41.1540°N, 122.8814°W)
Time: 16:51:13
(UTC+00:00)
Language:

Cosmos 1933 Rocket - Orbit

View from above orbital plane
View from above orbital plane
View from above satellite
View from above satellite

Ground track
Ground track

The orbit data is extracted from the following two-line orbital elements,

1 18959U 88020B   24174.14231724  .00000558  00000-0  63264-4 0  9995
2 18959  82.5372  35.9574 0015648 329.7709  30.2603 14.84551138960431
Epoch (UTC): 22 June 2024 03:24:56
Eccentricity: 0.0015648
inclination: 82.5372°
perigee height: 604 km
apogee height: 626 km
right ascension of ascending node: 35.9574°
argument of perigee: 329.7709°
revolutions per day: 14.84551138
mean anomaly at epoch: 30.2603°
orbit number at epoch: 96043

The dashed part of the orbit path shows where the satellite is in the earth's shadow,  

DLR